Location: The Saddle
(36.8333°N, 80.3417°W)
Time: 09:22:41
(UTC-05:00)

Explorer 11/Cluster Stage 4 - All Passes

Search period start: 02 December 2023 00:00
Search period end: 12 December 2023 00:00
Orbit: 465 x 1228 km, 28.8° (Epoch: 02 December)

Date Brightness Start Highest point End Pass type
(mag) Time Alt. Az. Time Alt. Az. Time Alt. Az.
02 Dec - 13:03:33 10° S 13:06:51 14° SSE 13:09:55 10° SE daylight
02 Dec - 14:49:26 10° SW 14:54:48 27° SSE 14:59:20 10° ESE daylight
02 Dec - 16:37:31 10° WSW 16:42:38 34° S 16:46:52 10° ESE daylight
02 Dec - 18:26:20 10° WSW 18:30:10 23° SSW 18:33:29 10° SE visible
03 Dec - 12:46:36 10° SSW 12:50:47 16° SSE 12:54:38 10° ESE daylight
03 Dec - 14:33:00 10° SW 14:38:47 30° S 14:43:41 10° ESE daylight
03 Dec - 16:21:16 10° WSW 16:26:42 35° S 16:31:10 10° ESE daylight
03 Dec - 18:10:15 10° WSW 18:14:16 23° SSW 18:17:44 10° SE visible
04 Dec - 12:29:49 10° SSW 12:34:41 18° SSE 12:39:08 10° ESE daylight
04 Dec - 14:16:34 10° SW 14:22:45 33° S 14:27:58 10° ESE daylight
04 Dec - 16:04:58 10° WSW 16:10:44 37° S 16:15:27 10° ESE daylight
04 Dec - 17:54:06 10° WSW 17:58:20 23° SSW 18:01:56 10° SE visible
05 Dec - 12:13:07 10° SSW 12:18:33 21° SSE 12:23:31 10° ESE daylight
05 Dec - 14:00:08 10° SW 14:06:40 35° S 14:12:13 10° ESE daylight
05 Dec - 15:48:41 10° WSW 15:54:44 38° S 15:59:41 10° ESE daylight
05 Dec - 17:37:56 10° WSW 17:42:21 23° SSW 17:46:07 10° SSE visible
06 Dec - 11:56:29 10° SSW 12:02:22 23° SSE 12:07:47 10° ESE daylight
06 Dec - 13:43:44 10° SW 13:50:33 38° S 13:56:24 10° ESE daylight
06 Dec - 15:32:22 10° WSW 15:38:41 39° S 15:43:54 10° ESE daylight
06 Dec - 17:21:44 10° WSW 17:26:21 23° SSW 17:30:16 10° SSE daylight
07 Dec - 11:39:55 10° SSW 11:46:09 25° SSE 11:51:58 10° ESE daylight
07 Dec - 13:27:19 10° WSW 13:34:24 40° S 13:40:32 10° ESE daylight
07 Dec - 15:16:02 10° WSW 15:22:36 40° S 15:28:03 10° ESE daylight
07 Dec - 17:05:31 10° WSW 17:10:18 23° SSW 17:14:24 10° SSE daylight
08 Dec - 09:40:06 10° SSE 09:41:57 11° SSE 09:43:49 10° SE daylight
08 Dec - 11:23:24 10° SSW 11:29:55 27° SSE 11:36:04 10° ESE daylight
08 Dec - 13:10:56 10° WSW 13:18:14 42° S 13:24:38 10° ESE daylight
08 Dec - 14:59:41 10° WSW 15:06:29 41° S 15:12:11 10° ESE daylight
08 Dec - 16:49:16 10° WSW 16:54:13 23° SSW 16:58:28 10° SSE daylight
09 Dec - 09:22:47 10° S 09:25:41 12° SSE 09:28:37 10° SE daylight
09 Dec - 11:06:57 10° SW 11:13:39 29° SSE 11:20:05 10° ESE daylight
09 Dec - 12:54:33 10° WSW 13:02:00 44° S 13:08:40 10° ESE daylight
09 Dec - 14:43:20 10° WSW 14:50:19 41° S 14:56:15 10° ESE daylight
09 Dec - 16:33:01 10° WSW 16:38:06 23° SSW 16:42:29 10° SSE daylight
10 Dec - 09:05:51 10° S 09:09:24 14° SSE 09:13:00 10° ESE daylight
10 Dec - 10:50:32 10° SW 10:57:22 31° SSE 11:04:03 10° ESE daylight
10 Dec - 12:38:11 10° WSW 12:45:45 45° S 12:52:39 10° ESE daylight
10 Dec - 14:26:59 10° WSW 14:34:08 41° S 14:40:17 10° ESE daylight
10 Dec - 16:16:45 10° WSW 16:21:56 22° SSW 16:26:28 10° SSE daylight
11 Dec - 08:49:08 10° S 08:53:06 15° SSE 08:57:12 10° ESE daylight
11 Dec - 10:34:09 10° SW 10:41:03 33° SSE 10:47:57 10° ESE daylight
11 Dec - 12:21:51 10° WSW 12:29:29 46° S 12:36:35 10° ESE daylight
11 Dec - 14:10:39 10° WSW 14:17:53 41° SSW 14:24:16 10° SE daylight
11 Dec - 16:00:29 10° WSW 16:05:44 22° SSW 16:10:23 10° SSE daylight
